Regional Weather Roundup
Issued by NWS

Home | Current Version | Previous Version | Graphics & Text | Print | Product List | Glossary On
Versions: 1 2 3 4 5 6 7 8 9 10 11 12 13 14 15 16 17 18 19 20 21 22 23 24 25 26 27 28 29 30 31 32 33 34 35 36 37 38 39 40 41 42 43 44 45 46 47 48 49 50
000
ASUS44 KMEG 271000
RWRTN
TENNESSEE HOURLY STATE WEATHER ROUNDUP
NATIONAL WEATHER SERVICE MEMPHIS TN
500 AM CDT MON APR 27 2015

TNZ002-004-019-021-049-052-054-088>092-271100-
WEST TENNESSEE

CITY           SKY/WX    TMP DP  RH WIND       PRES   REMARKS
MEMPHIS INTL   CLOUDY    53  42  66 NE9       29.95R
NWS MEMPHIS      N/A     51 N/A N/A MISG        N/A
JACKSON        CLEAR     44  40  85 NE6       29.93R
DYERSBURG      PTCLDY    48  30  49 NE10      29.96R
UNION CITY     CLEAR     43  32  65 NE7       29.94F
PARIS          CLEAR     43  37  81 N9        29.95R
LEXINGTON      CLEAR     39  39 100 N3        29.92R
SAVANNAH       CLEAR     43  32  65 N3        29.90F
$$

TNZ008-025-027-028-033-062-065-066-271100-
NORTH MIDDLE TENNESSEE

CITY           SKY/WX    TMP DP  RH WIND       PRES   REMARKS
NASHVILLE      CLEAR     44  38  79 N7        29.93R
CLARKSVILLE    CLEAR     44  39  82 N9        29.96R
COOKEVILLE     CLOUDY    37  37 100 CALM      29.90R VSB 1/2
CROSSVILLE     CLEAR     43  37  79 N3        29.89S
$$

TNZ061-075-076-078-094-096-097-271100-
SOUTH MIDDLE TENNESSEE

CITY           SKY/WX    TMP DP  RH WIND       PRES   REMARKS
FAYETTEVILLE   MOCLDY    41  39  93 CALM      29.89S VSB 1
TULLAHOMA      CLEAR     43  41  93 CALM      29.89R
WINCHESTER     CLEAR     39  39 100 CALM      29.89S
COLUMBIA       CLEAR     41  32  70 CALM      29.90R
SHELBYVILLE    CLEAR     43  43 100 N6        29.91R
$$

TNZ017-018-042-046-047-271100-
NORTHEAST TENNESSEE

CITY           SKY/WX    TMP DP  RH WIND       PRES   REMARKS
TRI CITIES     PTCLDY    41  38  89 CALM      29.85R
ELIZABETHTON   SUNNY     37  37 100 CALM      29.84R
$$

TNZ012-013-036-069-073-074-271100-
CENTRAL EAST TENNESSEE

CITY           SKY/WX    TMP DP  RH WIND       PRES   REMARKS
KNOXVILLE      PTCLDY    47  39  74 N8        29.86S
OAK RIDGE      CLEAR     43  40  89 CALM      29.89R
GATLINBURG     CLOUDY    48  43  81 CALM      29.86R
$$

TNZ083-085-099-271100-
SOUTHEAST TENNESSEE

CITY           SKY/WX    TMP DP  RH WIND       PRES   REMARKS
CHATTANOOGA    CLEAR     46  44  93 CALM      29.88R
$$

SKY/WX REPORTED AS FAIR MEANS FEW OR NO CLOUDS BELOW
12 THOUSAND FEET.



USA.gov is the U.S. government's official web portal to all federal, state and local government web resources and services.